Regional Weather Roundup
Issued by NWS

Home | Current Version | Previous Version | Text Only | Print | Product List | Glossary On
Versions: 1 2 3 4 5 6 7 8 9 10 11 12 13 14 15 16 17 18 19 20 21 22 23 24 25 26 27 28 29 30 31 32 33 34 35 36 37 38 39 40 41 42 43 44 45 46 47 48 49 50
000
ASUS43 KMKX 160259
RWRWI

WISCONSIN REGIONAL WEATHER ROUNDUP
NATIONAL WEATHER SERVICE MILWAUKEE/SULLIVAN WI
900 PM CST MON JAN 15 2018

NOTE: "FAIR" INDICATES FEW OR NO CLOUDS BELOW 12,000 FEET WITH NO
SIGNIFICANT WEATHER AND/OR OBSTRUCTIONS TO VISIBILITY.

WIZ001-002-006>008-014>016-023>028-160400-
NORTHWEST WISCONSIN

CITY           SKY/WX    TMP DP  RH WIND       PRES   REMARKS
SUPERIOR ARPT  CLOUDY     9   2  74 N7        30.55R WCI  -3
ASHLAND        CLOUDY    22  18  85 N13       30.46R WCI  10
HAYWARD        LGT SNOW  14   9  80 VRB7      30.43R WCI   4
SIREN          FAIR       6   1  79 N7        30.50R WCI  -5
CUMBERLAND     FAIR       5   1  85 N13       30.43R WCI -12
RICE LAKE      FAIR       8   4  82 CALM      30.45R
CHETEK         FAIR       7   3  84 N5        30.43R WCI  -2
LADYSMITH      CLOUDY    13  10  87 NW12      30.40R WCI   0
EAU CLAIRE     NOT AVBL
MENOMONIE      CLOUDY     9   2  75 NW12      30.45R WCI  -6
NEW RICHMOND   FLURRIES   5  -1  76 NW12      30.49R WCI -11
OSCEOLA        CLOUDY     5  -1  75 NW7       30.54R WCI  -7
$$

WIZ003>005-009-010-017-018-160400-
NORTH CENTRAL WISCONSIN

CITY           SKY/WX    TMP DP  RH WIND       PRES   REMARKS
MANITOWISH WTR FAIR      13  11  90 NE8       30.34R WCI   2
ARBOR VITAE    LGT SNOW  17  14  88 NE7       30.33R WCI   8
WOODRUFF       LGT SNOW  17  14  88 NE7       30.33R WCI   8
RHINELANDER    CLOUDY    15  12  88 NE6       30.33R WCI   6
EAGLE RIVER    FAIR      12   8  83 NE8       30.33R WCI   0
LAND O LAKES   LGT SNOW  14  11  87 NE5       30.36R WCI   7
PHILLIPS       CLOUDY    13  12  93 N6        30.34R WCI   4
TOMAHAWK       LGT SNOW  17  14  88 NE3       30.33R
MEDFORD        LGT SNOW  17  14  89 N3        30.31R
MERRILL        CLOUDY    17  14  85 NE5       30.34R WCI  10
$$

WIZ029-030-035-036-043>047-160400-
CENTRAL WISCONSIN

CITY           SKY/WX    TMP DP  RH WIND       PRES   REMARKS
WAUSAU         CLOUDY    17  12  80 NE6       30.32R WCI   9
MOSINEE        NOT AVBL
MARSHFIELD     MOCLDY    17  13  84 NE7       30.31R WCI   8
STEVENS POINT  LGT SNOW  16  15  93 NE12      30.33R WCI   3
WAUPACA        MOCLDY    20  16  82 N6        30.33R WCI  12
WAUTOMA        FLURRIES  17  14  88 N6        30.33R WCI   9
WISC RAPIDS    CLOUDY    18  13  80 NE6       30.34R WCI  10
CAMP DOUGLAS   FLURRIES N/A N/A N/A W8        30.37R
$$

WIZ011>013-019>022-031-037>040-048>050-160400-
NORTHEAST WISCONSIN

CITY           SKY/WX    TMP DP  RH WIND       PRES   REMARKS
ANTIGO         FAIR      10   8  91 N6        30.30S WCI   1
SHAWANO        MOCLDY    18  14  85 N9        30.34R WCI   6
OCONTO         CLOUDY    17  13  84 N8        30.34R WCI   7
STURGEON BAY   LGT SNOW  17  15  92 N10       30.32S FOG     WCI   5
GREEN BAY      LGT SNOW  18  14  84 N8        30.33R FOG     WCI   8
MANITOWOC      SNOW      20  18  92 N8        30.30S VSB 1/2 WCI  10
APPLETON       CLOUDY    18  12  79 N12       30.29R WCI   5
CLINTONVILLE   CLOUDY    18  14  86 NE8       30.33R WCI   7
OSHKOSH        CLOUDY    18  14  84 N14       30.30R WCI   4
$$

WIZ032>034-041-042-053>061-160400-
SOUTHWEST WISCONSIN

CITY           SKY/WX    TMP DP  RH WIND       PRES   REMARKS
LA CROSSE      LGT SNOW   7   2  80 NW14      30.43S WCI -10
SPARTA         LGT SNOW   9   5  86 W7        30.40R WCI  -3
VIROQUA        FAIR       5   2  88 NW13      30.34R WCI -12
BOSCOBEL       CLOUDY     8   1  73 W5        30.41R WCI   0
PRAIRIE DU CHI CLOUDY     5  -3  70 W8        30.44R WCI  -8
PLATTEVILLE    FAIR       6   3  88 W12       30.35R WCI -10
$$

WIZ056-057-062-063-064-067-068-160400-
SOUTH CENTRAL WISCONSIN

CITY           SKY/WX    TMP DP  RH WIND       PRES   REMARKS
REEDSBURG      LGT SNOW  11   7  84 NW7       30.33R WCI   0
BARABOO/DELLS  LGT SNOW  11   8  85 NW9       30.31R WCI  -1
LONE ROCK      LGT SNOW  10   5  80 W13       30.36R WCI  -5
MINERAL POINT  LGT SNOW  10   9  92 NW10      30.31R WCI  -3
MADISON        LGT SNOW  13   9  84 NW8G18    30.29R FOG     WCI   2
MIDDLETON      CLOUDY    13   9  84 NW12      30.30R WCI  -1
WATERTOWN      LGT SNOW  19  19 100 NW6       30.26R WCI  11
MONROE         LGT SNOW  10   7  85 W13G18    30.29R WCI  -5
JANESVILLE     FLURRIES  12   9  85 W9        30.30R WCI   0
$$

WIZ051-052-058>065-066-070>072-160400-
SOUTHEAST WISCONSIN

CITY           SKY/WX    TMP DP  RH WIND       PRES   REMARKS
MILWAUKEE      LGT SNOW  25  20  81 NE12      30.24R WCI  14
WAUKESHA       LGT SNOW  18  16  93 NW6       30.25R VSB 1   WCI   9
MILWAUKEE/TIMM LGT SNOW  21  18  86 NE7       30.25R WCI  13
RACINE         LGT SNOW  18  15  88 W9        30.25R FOG     WCI   7
BURLINGTON     LGT SNOW  19  16  88 W8        30.24R WCI   9
KENOSHA        LGT SNOW  17  12  80 W9        30.24R WCI   6
FOND DU LAC    LGT SNOW  19  14  81 N12       30.29R WCI   7
SHEBOYGAN      LGT SNOW  20  19  96 N6        30.28R FOG     WCI  12
WEST BEND      FLURRIES  21  19  93 N5        30.25S WCI  15
JUNEAU         CLOUDY    19  17  89 N6        30.27R WCI  11
$$

LSZ147-162-160400-
LAKE SUPERIOR

STATION/POSITION TIME  TEMP    WIND        PRES    WAVE
                       AIR SEA DIR/SP/G            HT/PER
                 (UTC) (F)     (DEG/KT/KT) (MB)    (FT/S)
DEVILS ISLAND    0200   23      20/ 27/ 30 1032.8R
SAXON HARBOR     0240   19      70/  4/ 10 1030.5R
$$

LMZ867-665-643>646-160400-
LAKE MICHIGAN

STATION/POSITION TIME  TEMP    WIND        PRES    WAVE
                       AIR SEA DIR/SP/G            HT/PER
                 (UTC) (F)     (DEG/KT/KT) (MB)    (FT/S)
NORTHPORT PIER   0240   23      50/  1/  4 1026.8F
KEWAUNEE LAKESHO 0230   23      70/  8/ 13 1025.3R
SHEBOYGAN LAKESH 0200   23      40/ 16/ 19 1026.0R
PORT WASHINGTON  0240   25      60/ 14/ 18 1025.7S
MILWAUKEE LAKESH 0230   25      50/ 18/ 20   N/A
KENOSHA   LAKESH 0200   16     260/ 12/ 15 1024.0
$$

TC  - TEMPERATURE IN CELSIUS
VSB - VISIBILITY IN STATUTE MILES
WCI - WIND CHILL INDEX
HX  - HEAT INDEX





USA.gov is the U.S. government's official web portal to all federal, state and local government web resources and services.